Regional Weather Roundup
Issued by NWS

Home | Current Version | Previous Version | Graphics & Text | Print | Product List | Glossary On
Versions: 1 2 3 4 5 6 7 8 9 10 11 12 13 14 15 16 17 18 19 20 21 22 23 24 25 26 27 28 29 30 31 32 33 34 35 36 37 38 39 40 41 42 43 44 45 46 47 48 49 50
000
ASUS45 KBOU 200407
RWRCO

WEATHER ROUNDUP FOR COLORADO
NATIONAL WEATHER SERVICE DENVER/BOULDER CO
1000 PM MDT THU OCT 19 2017

NOTE: "FAIR" INDICATES FEW OR NO CLOUDS BELOW 12000 FEET WITH NO
SIGNIFICANT WEATHER AND/OR OBSTRUCTIONS TO VISIBILITY.

COZ001>005-013-030-031-200500-
...NORTHWEST COLORADO...

CITY           SKY/WX    TMP DP  RH WIND       PRES   REMARKS
CRAIG          MOCLDY    47  31  53 CALM      29.98S
HAYDEN         CLOUDY    56  31  38 S5        30.01S
MEEKER         FAIR      53  33  46 E7        29.99F
RABBIT EARS PA FAIR      41  28  60 W6        30.22S
STEAMBOAT SPGS FAIR      50  30  45 SE3       30.02S
WALDEN         NOT AVBL
$$

COZ006>008-011-200500-
...WEST CENTRAL VALLEYS...

CITY           SKY/WX    TMP DP  RH WIND       PRES   REMARKS
GRAND JUNCTION MOCLDY    61  27  27 E7        29.92R
MONTROSE       FAIR      53  30  41 SE8       30.02S
EAGLE          FAIR      47  28  47 E6        30.05S
RIFLE          FAIR      54  30  40 E7        29.97F
DELTA          FAIR      59  25  26 N5        29.97S
NUCLA          MOCLDY    59  30  33 SE3       30.05S
$$

COZ017>023-064>068-200500-
...SOUTHWEST COLORADO...

CITY           SKY/WX    TMP DP  RH WIND       PRES   REMARKS
DURANGO        FAIR      47  31  53 NE7       30.08S
CORTEZ         CLOUDY    51  32  48 E5        30.04S
PAGOSA SPRINGS CLOUDY    51  28  40 CALM      30.14S
TELLURIDE      MOCLDY    49  26  42 CALM      30.20S
WOLF CREEK PAS FAIR      34  25  69 SW8G16    30.37S WCI  27
$$

COZ009-010-012-014-032>034-037-058>063-200500-
...CENTRAL COLORADO...

CITY           SKY/WX    TMP DP  RH WIND       PRES   REMARKS
ASPEN          FAIR      46  26  45 SW7       30.10R
BUENA VISTA    FAIR      44  19  37 W8        30.09S
COPPER MTN     FAIR      41  23  48 W8        30.31F
BERTHOUD PASS  FAIR      34  25  69 N5        30.33F WCI  30
COTTONWOOD PAS FAIR      54  21  28 W6        30.19S
GUNNISON       FAIR      47  26  44 CALM      30.10S
KREMMLING      FAIR      45  25  45 CALM      30.07S
LEADVILLE      FAIR      36  19  50 N5        30.19S
SALIDA         FAIR      54  16  22 W9        30.14S
SUNLIGHT       CLOUDY    37  27  65 SW10G21   30.27S
WILKERSON PASS MOCLDY    43  14  31 SW8       30.30S
$$

COZ069>075-200500-
...SAN LUIS VALLEY/SANGRE DE CRISTO MOUNTAINS...

CITY           SKY/WX    TMP DP  RH WIND       PRES   REMARKS
ALAMOSA        FAIR      42  27  55 CALM      30.09R
DEL NORTE      FAIR      51  27  39 SW12      30.12S
LA VETA PASS   FAIR      45  23  42 SW18G28   30.33S
SAGUACHE       FAIR      43  19  39 NW13      30.11R
$$

COZ035-036-038>040-200500-
...NORTHERN COLORADO FRONT RANGE...

CITY           SKY/WX    TMP DP  RH WIND       PRES   REMARKS
DENVER INTL AP FAIR      55  27  34 SW8       29.91S
DMNS CITY PARK   N/A     55  31  40 SE9       29.90F
AURORA         PTCLDY    58  29  33 S12       29.92S
FRONT RANGE AP FAIR      52  32  46 S10       29.92F
ERIE MUNI ARPT FAIR      47  33  58 CALM      29.95S
BOULDER MUN AP FAIR      52  32  46 SW3       29.89F
CENTENNIAL     FAIR      58  28  32 S12       29.93F
BROOMFIELD     MOCLDY    55  27  33 CALM      29.92S
FORT COLLINS   FAIR      52  35  52 N6        29.88F
LONGMONT       FAIR      49  36  60 SW3       29.90F
$$

COZ041-046-047-076>085-087-088-200500-
...PIKES PEAK/PALMER DIVIDE AND SOUTHERN FOOTHILLS...

CITY           SKY/WX    TMP DP  RH WIND       PRES   REMARKS
COLO. SPRINGS  MOCLDY    50  34  54 N5        29.99F
A. F. ACADEMY  FAIR      45  28  52 N8        29.99F
SCHRIEVER AFB  FAIR      53  33  46 CALM      29.99F
CHEYENNE MTN   FAIR      60  27  27 CALM      29.96F
ELLICOTT       FAIR     N/A N/A N/A SE10      29.96F
FALCON         FAIR      50  32  49 W3        30.02F
FORT CARSON    FAIR      52  31  44 NW8       29.95F
LIMON          FAIR      40  33  76 SE3       29.95F
MONUMENT HILL  FAIR      50  32  50 S13       30.02F
CANON CITY     FAIR      54  32  43 W9        29.94S
WALSENBURG     FAIR      50  32  50 SW8       29.97F
TRINIDAD       FAIR      57  31  37 S6        29.97F
$$

COZ042>045-048>051-090-091-200500-
...NORTHEAST COLORADO...

CITY           SKY/WX    TMP DP  RH WIND       PRES   REMARKS
GREELEY ARPT   FAIR      44  36  73 NW8       29.87F
AKRON          FAIR      56  40  55 S14       29.90F
BURLINGTON     FAIR      56  45  66 S15       29.93S
WRAY           NOT AVBL
YUMA           FAIR      54  43  66 S10       29.89F
STERLING       NOT AVBL
HOLYOKE        FAIR      59  45  58 S9        29.89S
FORT MORGAN    FAIR      51  32  48 CALM      29.89F
$$

COZ086-089-092>099-200500-
...SOUTHEAST COLORADO...

CITY           SKY/WX    TMP DP  RH WIND       PRES   REMARKS
PUEBLO         FAIR      56  36  47 N9        29.88S
LA JUNTA       FAIR      64  40  41 S9        29.89S
LAMAR          LGT RAIN  66  47  50 S17G23    29.88S
SPRINGFIELD      N/A     56  49  77 S12       29.97S
$$



USA.gov is the U.S. government's official web portal to all federal, state and local government web resources and services.